Regional Weather Roundup
Issued by NWS San Diego, CA

Home | Current Version | Previous Version | Text Only | Print | Product List | Glossary On
Versions: 1 2 3 4 5 6 7 8 9 10 11 12 13 14 15 16 17 18 19 20 21 22 23 24 25 26 27 28 29 30 31 32 33 34 35 36 37 38 39 40 41 42 43 44 45 46 47 48 49 50
000
ASUS46 KSGX 292311
RWRSGX

SAN DIEGO HOURLY WEATHER ROUNDUP
NATIONAL WEATHER SERVICE SAN DIEGO CA
400 PM PDT MON JUN 29 2015

NOTE: "FAIR" INDICATES FEW OR NO CLOUDS BELOW 12,000 FEET WITH NO
SIGNIFICANT WEATHER AND/OR OBSTRUCTIONS TO VISIBILITY.

CAZ042-043-060-061-PZZ750-775-300000-

GREATER SAN DIEGO AREA

CITY           SKY/WX    TMP DP  RH WIND       PRES   REMARKS
LINDBERGH FLD  CLOUDY    73  62  68 W7        29.91F
POINT LOMA       N/A     68  63  83 W12         N/A
CHULA VISTA      N/A     70  66  86 CALM      29.83F
IMPERIAL BEACH CLOUDY    69  63  81 W9        29.89F
BROWN FIELD    LGT RAIN  69  63  81 NW7       29.89F
MIRAMAR MCAS   CLOUDY    77  61  57 SW3       29.90F
MONTGOMERY FLD CLOUDY    73  62  68 SW6       29.91F

$$

NORTH SAN DIEGO COUNTY

CITY           SKY/WX    TMP DP  RH WIND       PRES   REMARKS
CAMP PENDLETON PTSUNNY   77  61  57 S12       29.88F
OCEANSIDE AP   PTSUNNY   75  64  68 SW12      29.88F
VISTA            N/A     80  66  62 SW6       29.87F
CARLSBAD       CLOUDY    71  64  78 W9        29.89F
DEL MAR          N/A     69  66  88 CALM      29.91F
FALLBROOK        N/A     82  62  49 SW5       29.87S
SAN MARCOS       N/A     78  66  66 SW1       29.87S
POWAY            N/A     81  66  61 W3        29.89S

$$

EAST SAN DIEGO COUNTY

CITY           SKY/WX    TMP DP  RH WIND       PRES   REMARKS
RAMONA         CLOUDY    83  62  49 NW10      29.92F
SANTEE LAKES     N/A     77  65  68 W6        29.87F
LA MESA          N/A     73  64  71 W6        29.64F
JAMUL            N/A     76  65  69 CALM      29.87F
DESCANSO N       N/A     83  61  46 CALM      29.72F
CAMPO            N/A     86  63  45 CALM      29.95F

$$

ORANGE COUNTY AND THE LOS ANGELES BASIN

CITY           SKY/WX    TMP DP  RH WIND       PRES   REMARKS
JOHN WAYNE AP  PTSUNNY   76  63  64 SW8       29.87F
LAKE FOREST FR   N/A     92  59  33 W6        29.76
SANTA ANA        N/A     82  64  53 CALM      29.82S
LOS ALAMITOS   FAIR      75  64  67 S10       29.87S
FULLERTON      CLOUDY    80  61  52 S9        29.86S
LONG BEACH     PTSUNNY   81  62  52 S8        29.86F
L.A. AP        PTSUNNY   70  62  76 W14       29.88F
L.A. DOWNTOWN  PTSUNNY   82  62  50 VRB5      29.86S

$$

THE INLAND EMPIRE

CITY           SKY/WX    TMP DP  RH WIND       PRES   REMARKS
CORONA         MOSUNNY   95  58  28 W13       29.84F
CHINO          PTSUNNY   97  56  25 W15       29.86F HX  95
ONTARIO        PTSUNNY   97  58  27 SW15      29.86F HX  96
SAN BERNARDINO PTSUNNY   99  46  16 SW13      29.86F HX  95
RIVERSIDE AP   PTSUNNY   97  57  26 W12       29.85F HX  96
MORENO VALLEY    N/A    100  54  21 W7        29.86F HX  97
MARCH ARB      MOSUNNY   99  51  19 NW13      29.89F HX  96
HORSETHIEF CYN   N/A     97  52  21 NW12      29.79F
PERRIS           N/A     97  50  20 NW5         N/A
MENIFEE          N/A    101  59  24 SW3       29.90F HX 101
HEMET EAST       N/A     95  51  21 S3        29.85F
FRENCH VALLEY  FAIR      93  57  29 SW9       29.90S
TEMECULA         N/A     90  59  34 SW8       29.84F

$$

SAN BERNARDINO AND RIVERSIDE COUNTY MOUNTAINS

CITY           SKY/WX    TMP DP  RH WIND       PRES   REMARKS
BIG BEAR AP    PTSUNNY   79  48  34 W9        30.29S
ANGELUS OAKS     N/A     78  53  41 CALM      29.77F
PINE COVE        N/A     79  54  42 W3        29.86F

$$

SOUTHERN DESERT INCLUDING THE COACHELLA VALLEY

CITY           SKY/WX    TMP DP  RH WIND       PRES   REMARKS
PALM SPRINGS   PTSUNNY  105  61  23 E10       29.79F HX 106
PALM DESERT      N/A    106  65  26 CALM        N/A  HX 110
THERMAL        MOSUNNY  107  60  21 SE8       29.71F HX 108
BLYTHE         MOSUNNY  109  59  19 S14       29.73F HX 110
IMPERIAL AP    SUNNY    107  63  23 VRB5      29.72F HX 110
EL CENTRO NAS  MOSUNNY  108  60  21 S12       29.75F HX 109
YUMA AZ        MOSUNNY  107  60  21 S7        29.75F HX 108
MEXICALI       MOSUNNY  106  54  17 S3        29.76F HX 104

$$

UPPER DESERT

CITY           SKY/WX    TMP DP  RH WIND       PRES   REMARKS
VICTORVILLE AP MOSUNNY  100  45  15 SW7       29.96F HX  96
HESPERIA         N/A     98  52  21 W5        29.90F HX  95
APPLE VALLEY     N/A     97 N/A N/A S12G18    30.01S
PALMDALE       CLOUDY    98  47  17 SW15      29.94F
LANCASTER      CLOUDY    98  47  17 CALM      29.93F
EDWARDS AFB    PTSUNNY  100  46  15 SW15      29.91F HX  96
DAGGETT        MOSUNNY  106  43  12 N6        29.85F HX 101
29 PALMS N     MOSUNNY  103  53  19 SW13G21   29.93F HX 101
NEEDLES        MOSUNNY  115  49  11 W14       29.74F HX 111

$$

REGIONAL REPORTS

CITY           SKY/WX    TMP DP  RH WIND       PRES   REMARKS
SANTA BARBARA  MOSUNNY   76  58  53 SW7       29.88F
SANDBERG       MOSUNNY   93  43  17 S9G30     30.13F
LAS VEGAS NV   MOSUNNY  108  44  11 S10       29.80F HX 103
PHOENIX AZ     MOSUNNY  108  56  18 VRB6G17   29.76F HX 107
TIJUANA        PTSUNNY   72  61  68 NW10      29.91F
ENSENADA NW      N/A     69  32  25 W3        29.87F

$$

OFFSHORE ISLANDS

CITY           SKY/WX    TMP DP  RH WIND       PRES   REMARKS
CATALINA ARPT  MOSUNNY   87  55  33 S5        29.95F
SAN CLEMENTE I PTSUNNY   69  60  73 W14       29.92F
SAN NICOLAS IS PTSUNNY   63  50  62 NW20      29.90F

$$

MARINE AND OFFSHORE BUOY REPORTS

STATION/POSITION SKY/WX   TEMP    WIND        PRES    SWELL
                          AIR SEA DIR/SP/G            HT/PER/DIR
                          (F)     (DEG/KT/KT) (MB)    (FT/S/D)
TANNER BANKS               60 62  310/ 17/ 19 1013.4F   3/320/ 7
S CLEMENTE BASIN           63 66  290/ 12/ 14 1012.5F   5/280/ 7
SAN NICOLAS IS.               62                N/A     2/180/13
SO. S. ROSA ISLA           59 61  320/ 19/ 23 1012.1F   2/ 9
W. S. BARBARA CH           58 58  310/ 23/ 27 1011.6F   2/250/15
M. S. BARBARA CH           61 65  250/ 12/ 14 1013.0S
S. MONICA BASIN            66 70  340/  6/  8 1011.9F   3/220/15
S PEDRO CHANNEL               66                N/A     2/180/13
DANA POINT                    69                N/A     2/190/15
OCEANSIDE OFFSHR              71                N/A     2/210/14
TORREY PINES OTR              71                N/A     2/190/15
LA JOLLA 1                 68 66  250/  5/  6 1012.8S
MISSION BAY BUOY              71                N/A     2/190/15
SAN DIEGO BAY                 73              1013.3F
POINT LOMA SOUTH              70                N/A     2/200/14

$$



USA.gov is the U.S. government's official web portal to all federal, state and local government web resources and services.